Погода в Красново

Россия / Тюменская область     56°35′54″N   65°10′26″E
темп.,
°C
ветер,
м/с
пор.,
м/с
влажн.,
%
обл.,
%
осадки,
мм/ч
давл.,
гПа
погр.,
м
8 марта, пн
пн823:00−10с5994100 2.4 1002392
02:00−12сз4894100 0.3 1005255
05:00−17зсз359566 0.3 100784
08:00−20зюз36983 0.0 100895
11:00−15зюз469222 0.0 1009263
14:00−12юз488887 0.0 1009489
17:00−10ю498794 0.0 1008738
20:00−10ю51293100 0.2 1007584
9 марта, вт
вт923:00−8ююз5139298 0.3 1006539
02:00−7юз6158696 0.1 1005614
05:00−8юз6148868 0.1 1005393
08:00−8ююз5129276 0.0 1005398
11:00−4ююз6119488 1.1 1004913
14:00−3юз81391100 0.6 10031112
17:00−4зюз9148299 1.4 1005959
20:00−10з349156 0.0 100952
10 марта, ср
ср1023:00−13зюз229349 0.0 101220
02:00−14ююз129474 0.0 101220
05:00−13ююв229387 0.0 101120
08:00−13юв2393100 0.0 100944
11:00−9вюв3493100 0.0 1007241
14:00−6в4693100 0.0 1005454
17:00−6в5890100 0.1 1003586
20:00−8всв5994100 0.1 1002374
11 марта, чт
чт1123:00−9всв5995100 0.6 1002434
02:00−12св5994100 0.4 1001331
05:00−13св51094100 0.9 1003375
08:00−15ссв5995100 0.6 1004378
11:00−15ссв5793100 0.9 1005408
14:00−14с4693100 0.4 1005427
17:00−14с5793100 0.8 1006615
20:00−17ссз4994100 0.4 1008564
12 марта, пт
пт1223:00−19ссз4995100 0.5 1010434
02:00−22сз4896100 0.0 1012326
05:00−27сз489699 0.0 1014147
08:00−29сз369611 0.0 1017136
11:00−23зсз35916 0.0 1019319
14:00−18з358326 0.0 1020633
17:00−17зюз368860 0.0 1020329
20:00−21юз339625 0.0 102131